AirNav   ATP
 
 553 users online  

PAAN Gold King Creek Airport
Fairbanks, Alaska, USA

GOING TO FAIRBANKS?


FAA INFORMATION EFFECTIVE 24 MAY 2018

Location

FAA Identifier: AK7
Lat/Long: 64-11-53.0000N / 147-55-43.0000W
64-11.883333N / 147-55.716667W
64.1980556 / -147.9286111
(estimated)
Elevation: 1720 ft. / 524 m (estimated)
Variation: 25E (1965)
From city: 39 miles SE of FAIRBANKS, AK
Time zone: UTC -8 (UTC -9 during Standard Time)
Zip code: 99743

Airport Operations

Airport use: Open to the public
Activation date: 02/2001
Control tower: no
ARTCC: ANCHORAGE CENTER
FSS: FAIRBANKS FLIGHT SERVICE STATION [907-474-0788]
NOTAMs facility: FAI (NOTAM-D service available)
Attendance: UNATNDD
Wind indicator: yes
Segmented circle: no

Airport Communications

CTAF: 122.9

Nearby radio navigation aids

VOR radial/distance  VOR name  Freq  Var
FAIr156/36.2FAIRBANKS VORTAC108.6021E
ENNr107/37.9NENANA VORTAC115.8021E

 
NDB name  Hdg/Dist  Freq  Var  ID
ICE POOL107/36.452518EICW .. -.-. .--

Airport Services

Runway Information

Runway 9/27

Dimensions: 2558 x 17 ft. / 780 x 5 m
Surface: gravel/dirt, in fair condition
ROCKS UP TO 6 INCHES ON RY SFC.
RUNWAY 9  RUNWAY 27
Latitude: 64-11.993708N64-11.772323N
Longitude: 147-56.125273W147-55.307022W
Traffic pattern: leftleft
Runway heading: 097 magnetic, 122 true277 magnetic, 302 true
Obstructions: 32 ft. trees25 ft. brush, 90 ft. left and right of centerline

Airport Ownership and Management from official FAA records

Ownership: Publicly-owned
Owner: ALASKA DOT&PF NORTHERN REGION
2301 PEGER ROAD
FAIRBANKS, AK 99709
Phone 907-451-2200
Manager: TOM WILLIAMS
2301 PEGER ROAD
FAIRBANKS, AK 99709
Phone (907) 451-5280

Airport Operational Statistics

Aircraft based on the field: 1
Single engine airplanes: 1
    
Aircraft operations: 50/year *
100% local general aviation
* for 12-month period ending 31 December 2014

Additional Remarks

RY CONDITION NOT MONITORED; RECOMMEND VISUAL INSP PRIOR TO LANDING.
NO SVCS AVBL.
40 FT TREES ON BOTH SIDES OF RY WITHIN 50 FT OF CENTERLINE.
RY SUITABLE FOR HIGH WING ACFT ONLY.
RY 27 HAS A 500 FT SAFETY AREA WITH TREES UP TO 3 FT GROWING ON SFC.

Instrument Procedures

There are no published instrument procedures at PAAN.

Some nearby airports with instrument procedures:

PAHV - Healy River Airport (34 nm SW)
PAEI - Eielson Air Force Base (35 nm NE)
PANN - Nenana Municipal Airport (36 nm NW)
PAFA - Fairbanks International Airport (37 nm N)
PAFB - Ladd Army Airfield (39 nm N)
 
Loc | Ops | Rwys | IFR | FBO | Links
Com | Nav | Svcs | Stats | Notes

Crowley
 
Area around PAAN (Gold King Creek Airport)
 
Road maps at: MapQuest Bing Google
 
Aerial photo
WARNING: Photo may not be current or correct
Aerial photo of PAAN (Gold King Creek Airport)
Photo taken 18-Feb-2012
looking west.

Do you have a better or more recent aerial photo of Gold King Creek Airport that you would like to share? If so, please send us your photo.

 
Sectional chart

 
Airport distance calculator
Flying to Gold King Creek Airport? Find the distance to fly.

From to PAAN

Sunrise and sunset
Times for 27-May-2018
 Local
(UTC-8)
 Zulu
(UTC)
Morning civil twilight++
Sunrise03:5911:59
Sunset23:3807:38
Evening civil twilight++

Current date and time
Zulu (UTC)  28-May-2018 05:04:31
Local (UTC-8)  27-May-2018 21:04:31
 
METAR
PAEI 
35nm NE 
280456Z AUTO 01010KT 10SM SCT085 16/01 A2970 RMK AO2 SLP061 T01590008
PANN 
37nm NW 
280453Z AUTO 35009KT 10SM FEW080 18/M01 A2968 RMK AO2 SLP055 T01781011 TSNO $
PAFA 
37nm N 
280453Z 04012KT 10SM FEW075 SCT090 SCT180 16/00 A2972 RMK AO2 SLP069 T01610000 $
PAIN 
38nm SW 
280456Z AUTO 35003KT 10SM OVC075 12/00 A2974 RMK AO2 SLP086 T01220000
PAFB 
39nm N 
280358Z AUTO 02011KT 10SM CLR 17/00 A2971 RMK AO2 SLP064 T01681005 $
TAF
PAEI 
35nm NE 
280400Z 2804/2910 03009KT 9999 BKN070 QNH2966INS BECMG 2818/2819 04012KT 9999 SCT060 QNH2972INS TEMPO 2822/2904 04010G15KT TX17/2902Z TN06/2813Z
PAFA 
37nm N 
271722Z 2718/2824 03008KT P6SM SCT050 BKN120 FM272100 03008G18KT P6SM SCT050 SCT120 FM280300 03008KT P6SM SCT120
NOTAMs
Click for the latest NOTAMs
NOTAMs are issued by the DoD/FAA and will open in a separate window not controlled by AirNav.

 

 
 

Would you like to see your business listed on this page?

 If your business provides an interesting product or service to pilots, flight crews, aircraft, or users of the Gold King Creek Airport, you should consider listing it here.  To start the listing process, click on the button below
 
Add a business
 

Other Pages about Gold King Creek Airport

Update a link
 
Copyright © AirNav, LLC. All rights reserved. Privacy Policy  Contact